Regional Weather Roundup
Issued by NWS Little Rock, AR

Home | Current Version | Previous Version | Graphics & Text | Print | Product List | Glossary On
Versions: 1 2 3 4 5 6 7 8 9 10 11 12 13 14 15 16 17 18 19 20 21 22 23 24 25 26 27 28 29 30 31 32 33 34 35 36 37 38 39 40 41 42 43 44 45 46 47 48 49
000
ASUS44 KLZK 070305
RWRLZK

WEATHER ROUNDUP FOR ARKANSAS
NATIONAL WEATHER SERVICE LITTLE ROCK AR
1000 PM CDT MON JUL 06 2015

NOTE: "FAIR" INDICATES FEW OR NO CLOUDS BELOW 12,000 FEET WITH NO
SIGNIFICANT WEATHER AND/OR OBSTRUCTIONS TO VISIBILITY.

ARZ001-003-010-029-070400-
NORTHWEST ARKANSAS

CITY           SKY/WX    TMP DP  RH WIND       PRES   REMARKS
FAYETTEVILLE   CLOUDY    76  71  85 S7        29.98R
FORT SMITH     CLOUDY    81  69  67 S3        29.95R
HARRISON       CLOUDY    75  72  90 S6        29.99R
BENTONVILLE    CLOUDY    79  70  73 SW6       29.99R
ROGERS         CLOUDY    78  71  79 S10       30.00R
SILOAM SPGS    CLOUDY    75  68  78 SW7       29.99R
HIGHFILL       CLOUDY    77  72  84 SW6       29.98R
$$

ARZ004-005-016-070400-
NORTH CENTRAL ARKANSAS

CITY           SKY/WX    TMP DP  RH WIND       PRES   REMARKS
BATESVILLE     CLOUDY    79  75  89 SE6       29.99R
FLIPPIN        CLOUDY    79  72  78 CALM      29.95R
MTN HOME       CLOUDY    77  72  84 S6        29.97R
$$

ARZ040-041-070400-
WEST CENTRAL ARKANSAS

CITY           SKY/WX    TMP DP  RH WIND       PRES   REMARKS
MENA           MOCLDY    82  72  69 CALM      30.00R HX  87
MOUNT IDA      MOCLDY    82  72  71 VRB3      29.97R HX  87
$$

ARZ009-017-025-026-028-070400-
NORTHEAST ARKANSAS

CITY           SKY/WX    TMP DP  RH WIND       PRES   REMARKS
JONESBORO      HVY RAIN  74  73  97 SW12      30.01S FOG
NEWPORT        CLOUDY    77  75  93 SE6       30.01R
WALNUT RIDGE   MOCLDY    75  70  83 S16       29.99R
BLYTHEVILLE    CLOUDY    81  75  82 S9        30.01R THUNDER HX  87
$$

ARZ022-023-033-042-044-070400-
CENTRAL ARKANSAS

CITY           SKY/WX    TMP DP  RH WIND       PRES   REMARKS
LITTLE ROCK    MOCLDY    80  73  79 SE6       29.99R
N LITTLE ROCK  MOCLDY    81  76  83 S7        29.99R HX  88
JACKSONVILLE   PTCLDY    78  75  88 E1        29.99R
SEARCY         CLOUDY    79  76  90 S3        30.00R
HOT SPRINGS    MOCLDY    81  73  76 SE5       29.99R HX  86
RUSSELLVILLE   MOCLDY    80  74  81 SE3       29.97R HX  85
CLINTON        FAIR      75  75 100 CALM      30.01R FOG
$$

ARZ036-070400-
EAST ARKANSAS

CITY           SKY/WX    TMP DP  RH WIND       PRES   REMARKS
WEST MEMPHIS   MOCLDY    78  76  93 S7        30.02R
$$

ARZ050-053-066-070-073-070400-
SOUTHWEST ARKANSAS

CITY           SKY/WX    TMP DP  RH WIND       PRES   REMARKS
ARKADELPHIA    FAIR      79  79 100 CALM      29.99R
CAMDEN         PTCLDY    77  73  88 CALM      29.99R
TEXARKANA      PTCLDY    81  73  76 S6        29.99R HX  86
EL DORADO      PTCLDY    79  75  87 SE3       30.01R
DE QUEEN       MOCLDY    79  74  84 SE3       29.95R
$$

ARZ056-057-069-070400-
SOUTHEAST ARKANSAS

CITY           SKY/WX    TMP DP  RH WIND       PRES   REMARKS
PINE BLUFF     PTCLDY    79  76  90 SE6       30.00R
STUTTGART      MOCLDY    82  75  78 MISG      29.99R HX  89
MONTICELLO     PTCLDY    81  79  94 CALM      30.02R HX  90

$$




USA.gov is the U.S. government's official web portal to all federal, state and local government web resources and services.